owner,sensor,date,latitude,longitude,relative_humidity,qcFlag 
DISL,ioos:station:DISL:BSCA:1,2015-03-01T00:00:00Z,30.3288,-87.8293,80.7,1111122 
DISL,ioos:station:DISL:BSCA:1,2015-03-01T00:30:00Z,30.3288,-87.8293,84.7,1111122 
DISL,ioos:station:DISL:BSCA:1,2015-03-01T01:00:00Z,30.3288,-87.8293,87.9,1111122 
DISL,ioos:station:DISL:BSCA:1,2015-03-01T01:30:00Z,30.3288,-87.8293,83.8,1111122 
DISL,ioos:station:DISL:BSCA:1,2015-03-01T02:00:00Z,30.3288,-87.8293,84.3,1111122 
DISL,ioos:station:DISL:BSCA:1,2015-03-01T02:30:00Z,30.3288,-87.8293,84.2,1111122 
DISL,ioos:station:DISL:BSCA:1,2015-03-01T03:00:00Z,30.3288,-87.8293,83.8,1111122 
DISL,ioos:station:DISL:BSCA:1,2015-03-01T03:30:00Z,30.3288,-87.8293,86.3,1111122 
DISL,ioos:station:DISL:BSCA:1,2015-03-01T04:00:00Z,30.3288,-87.8293,89.1,1111122 
DISL,ioos:station:DISL:BSCA:1,2015-03-01T04:30:00Z,30.3288,-87.8293,90.6,1111122 
DISL,ioos:station:DISL:BSCA:1,2015-03-01T05:00:00Z,30.3288,-87.8293,93.4,1111122 
DISL,ioos:station:DISL:BSCA:1,2015-03-01T05:30:00Z,30.3288,-87.8293,94.6,1111122 
DISL,ioos:station:DISL:BSCA:1,2015-03-01T06:00:00Z,30.3288,-87.8293,96.6,1111122 
DISL,ioos:station:DISL:BSCA:1,2015-03-01T06:30:00Z,30.3288,-87.8293,98.6,1111122 
DISL,ioos:station:DISL:BSCA:1,2015-03-01T07:00:00Z,30.3288,-87.8293,99.5,1111122 
DISL,ioos:station:DISL:BSCA:1,2015-03-01T07:30:00Z,30.3288,-87.8293,99.5,1111122 
DISL,ioos:station:DISL:BSCA:1,2015-03-01T08:00:00Z,30.3288,-87.8293,99.7,1111122 
DISL,ioos:station:DISL:BSCA:1,2015-03-01T08:30:00Z,30.3288,-87.8293,100.0,1111122 
DISL,ioos:station:DISL:BSCA:1,2015-03-01T09:00:00Z,30.3288,-87.8293,100.0,1111122 
DISL,ioos:station:DISL:BSCA:1,2015-03-01T09:30:00Z,30.3288,-87.8293,100.0,1111122 
DISL,ioos:station:DISL:BSCA:1,2015-03-01T10:00:00Z,30.3288,-87.8293,100.0,1111122 
DISL,ioos:station:DISL:BSCA:1,2015-03-01T10:30:00Z,30.3288,-87.8293,100.0,1111122 
DISL,ioos:station:DISL:BSCA:1,2015-03-01T11:00:00Z,30.3288,-87.8293,100.0,1111122 
DISL,ioos:station:DISL:BSCA:1,2015-03-01T11:30:00Z,30.3288,-87.8293,100.0,1111122 
DISL,ioos:station:DISL:BSCA:1,2015-03-01T12:00:00Z,30.3288,-87.8293,100.0,1111122 
DISL,ioos:station:DISL:BSCA:1,2015-03-01T12:30:00Z,30.3288,-87.8293,100.0,1111122 
DISL,ioos:station:DISL:BSCA:1,2015-03-01T13:00:00Z,30.3288,-87.8293,100.0,1111122 
DISL,ioos:station:DISL:BSCA:1,2015-03-01T13:30:00Z,30.3288,-87.8293,100.0,1111122 
DISL,ioos:station:DISL:BSCA:1,2015-03-01T14:00:00Z,30.3288,-87.8293,100.0,1111122 
DISL,ioos:station:DISL:BSCA:1,2015-03-01T14:30:00Z,30.3288,-87.8293,100.0,1111122 
DISL,ioos:station:DISL:BSCA:1,2015-03-01T15:00:00Z,30.3288,-87.8293,100.0,1111122 
DISL,ioos:station:DISL:BSCA:1,2015-03-01T15:30:00Z,30.3288,-87.8293,100.0,1111122 
DISL,ioos:station:DISL:BSCA:1,2015-03-01T16:00:00Z,30.3288,-87.8293,100.0,1111122 
DISL,ioos:station:DISL:BSCA:1,2015-03-01T16:30:00Z,30.3288,-87.8293,100.0,1111122 
DISL,ioos:station:DISL:BSCA:1,2015-03-01T17:00:00Z,30.3288,-87.8293,100.0,1111122 
DISL,ioos:station:DISL:BSCA:1,2015-03-01T17:30:00Z,30.3288,-87.8293,100.0,1111122 
DISL,ioos:station:DISL:BSCA:1,2015-03-01T18:00:00Z,30.3288,-87.8293,100.0,1111122 
DISL,ioos:station:DISL:BSCA:1,2015-03-01T18:30:00Z,30.3288,-87.8293,100.0,1111122 
DISL,ioos:station:DISL:BSCA:1,2015-03-01T19:00:00Z,30.3288,-87.8293,100.0,1111122 
DISL,ioos:station:DISL:BSCA:1,2015-03-01T19:30:00Z,30.3288,-87.8293,100.0,1111122 
DISL,ioos:station:DISL:BSCA:1,2015-03-01T20:00:00Z,30.3288,-87.8293,100.0,1111122 
DISL,ioos:station:DISL:BSCA:1,2015-03-01T20:30:00Z,30.3288,-87.8293,100.0,1111122 
DISL,ioos:station:DISL:BSCA:1,2015-03-01T21:00:00Z,30.3288,-87.8293,100.0,1111122 
DISL,ioos:station:DISL:BSCA:1,2015-03-01T21:30:00Z,30.3288,-87.8293,100.0,1111122 
DISL,ioos:station:DISL:BSCA:1,2015-03-01T22:00:00Z,30.3288,-87.8293,100.0,1111122 
DISL,ioos:station:DISL:BSCA:1,2015-03-01T22:30:00Z,30.3288,-87.8293,100.0,1111122 
DISL,ioos:station:DISL:BSCA:1,2015-03-01T23:00:00Z,30.3288,-87.8293,100.0,1111122 
DISL,ioos:station:DISL:BSCA:1,2015-03-01T23:30:00Z,30.3288,-87.8293,100.0,1111122 
DISL,ioos:station:DISL:BSCA:1,2015-03-02T00:00:00Z,30.3288,-87.8293,100.0,1111122 
DISL,ioos:station:DISL:BSCA:1,2015-03-02T00:30:00Z,30.3288,-87.8293,100.0,1111122 
DISL,ioos:station:DISL:BSCA:1,2015-03-02T01:00:00Z,30.3288,-87.8293,100.0,1111122 
DISL,ioos:station:DISL:BSCA:1,2015-03-02T01:30:00Z,30.3288,-87.8293,100.0,1111122 
DISL,ioos:station:DISL:BSCA:1,2015-03-02T02:00:00Z,30.3288,-87.8293,100.0,1111122 
DISL,ioos:station:DISL:BSCA:1,2015-03-02T02:30:00Z,30.3288,-87.8293,100.0,1111122 
DISL,ioos:station:DISL:BSCA:1,2015-03-02T03:00:00Z,30.3288,-87.8293,100.0,1111122 
DISL,ioos:station:DISL:BSCA:1,2015-03-02T03:30:00Z,30.3288,-87.8293,100.0,1111122 
DISL,ioos:station:DISL:BSCA:1,2015-03-02T04:00:00Z,30.3288,-87.8293,100.0,1111122 
DISL,ioos:station:DISL:BSCA:1,2015-03-02T04:30:00Z,30.3288,-87.8293,100.0,1111122 
DISL,ioos:station:DISL:BSCA:1,2015-03-02T05:00:00Z,30.3288,-87.8293,100.0,1111122 
DISL,ioos:station:DISL:BSCA:1,2015-03-02T05:30:00Z,30.3288,-87.8293,100.0,1111122 
DISL,ioos:station:DISL:BSCA:1,2015-03-02T06:00:00Z,30.3288,-87.8293,100.0,1111122 
DISL,ioos:station:DISL:BSCA:1,2015-03-02T06:30:00Z,30.3288,-87.8293,100.0,1111122 
DISL,ioos:station:DISL:BSCA:1,2015-03-02T07:00:00Z,30.3288,-87.8293,100.0,1111122 
DISL,ioos:station:DISL:BSCA:1,2015-03-02T07:30:00Z,30.3288,-87.8293,100.0,1111122 
DISL,ioos:station:DISL:BSCA:1,2015-03-02T08:00:00Z,30.3288,-87.8293,100.0,1111122 
DISL,ioos:station:DISL:BSCA:1,2015-03-02T08:30:00Z,30.3288,-87.8293,100.0,1111122 
DISL,ioos:station:DISL:BSCA:1,2015-03-02T09:00:00Z,30.3288,-87.8293,100.0,1111122 
DISL,ioos:station:DISL:BSCA:1,2015-03-02T09:30:00Z,30.3288,-87.8293,100.0,1111122 
DISL,ioos:station:DISL:BSCA:1,2015-03-02T10:00:00Z,30.3288,-87.8293,100.0,1111122 
DISL,ioos:station:DISL:BSCA:1,2015-03-02T10:30:00Z,30.3288,-87.8293,100.0,1111122 
DISL,ioos:station:DISL:BSCA:1,2015-03-02T11:00:00Z,30.3288,-87.8293,100.0,1111122 
DISL,ioos:station:DISL:BSCA:1,2015-03-02T11:30:00Z,30.3288,-87.8293,100.0,1111122 
DISL,ioos:station:DISL:BSCA:1,2015-03-02T12:00:00Z,30.3288,-87.8293,100.0,1111122 
DISL,ioos:station:DISL:BSCA:1,2015-03-02T12:30:00Z,30.3288,-87.8293,100.0,1111122 
DISL,ioos:station:DISL:BSCA:1,2015-03-02T13:00:00Z,30.3288,-87.8293,100.0,1111122 
DISL,ioos:station:DISL:BSCA:1,2015-03-02T13:30:00Z,30.3288,-87.8293,100.0,1111122 
DISL,ioos:station:DISL:BSCA:1,2015-03-02T14:00:00Z,30.3288,-87.8293,100.0,1111122 
DISL,ioos:station:DISL:BSCA:1,2015-03-02T14:30:00Z,30.3288,-87.8293,100.0,1111122 
DISL,ioos:station:DISL:BSCA:1,2015-03-02T15:00:00Z,30.3288,-87.8293,100.0,1111122 
DISL,ioos:station:DISL:BSCA:1,2015-03-02T15:30:00Z,30.3288,-87.8293,100.0,1111122 
DISL,ioos:station:DISL:BSCA:1,2015-03-05T16:30:00Z,30.3288,-87.8293,100.0,1111122 
DISL,ioos:station:DISL:BSCA:1,2015-03-05T17:00:00Z,30.3288,-87.8293,95.8,1111122 
DISL,ioos:station:DISL:BSCA:1,2015-03-05T17:30:00Z,30.3288,-87.8293,93.6,1111122 
DISL,ioos:station:DISL:BSCA:1,2015-03-05T18:00:00Z,30.3288,-87.8293,88.4,1111122 
DISL,ioos:station:DISL:BSCA:1,2015-03-05T18:30:00Z,30.3288,-87.8293,90.2,1111122 
DISL,ioos:station:DISL:BSCA:1,2015-03-05T19:00:00Z,30.3288,-87.8293,89.4,1111122 
DISL,ioos:station:DISL:BSCA:1,2015-03-05T19:30:00Z,30.3288,-87.8293,90.8,1111122 
DISL,ioos:station:DISL:BSCA:1,2015-03-05T20:00:00Z,30.3288,-87.8293,92.7,1111122 
DISL,ioos:station:DISL:BSCA:1,2015-03-05T20:30:00Z,30.3288,-87.8293,90.9,1111122 
DISL,ioos:station:DISL:BSCA:1,2015-03-05T21:00:00Z,30.3288,-87.8293,91.7,1111122 
DISL,ioos:station:DISL:BSCA:1,2015-03-05T21:30:00Z,30.3288,-87.8293,94.0,1111122 
DISL,ioos:station:DISL:BSCA:1,2015-03-05T22:00:00Z,30.3288,-87.8293,89.3,1111122 
DISL,ioos:station:DISL:BSCA:1,2015-03-05T22:30:00Z,30.3288,-87.8293,88.7,1111122 
DISL,ioos:station:DISL:BSCA:1,2015-03-05T23:00:00Z,30.3288,-87.8293,84.5,1111122 
DISL,ioos:station:DISL:BSCA:1,2015-03-05T23:30:00Z,30.3288,-87.8293,85.3,1111122 
DISL,ioos:station:DISL:BSCA:1,2015-03-06T00:00:00Z,30.3288,-87.8293,88.1,1111122 
DISL,ioos:station:DISL:BSCA:1,2015-03-06T00:30:00Z,30.3288,-87.8293,90.1,1111122 
DISL,ioos:station:DISL:BSCA:1,2015-03-06T01:00:00Z,30.3288,-87.8293,86.9,1111122 
DISL,ioos:station:DISL:BSCA:1,2015-03-06T01:30:00Z,30.3288,-87.8293,85.4,1111122 
DISL,ioos:station:DISL:BSCA:1,2015-03-06T02:00:00Z,30.3288,-87.8293,87.4,1111122 
DISL,ioos:station:DISL:BSCA:1,2015-03-06T02:30:00Z,30.3288,-87.8293,89.2,1111122 
DISL,ioos:station:DISL:BSCA:1,2015-03-06T03:00:00Z,30.3288,-87.8293,83.5,1111122 
DISL,ioos:station:DISL:BSCA:1,2015-03-06T03:30:00Z,30.3288,-87.8293,84.4,1111122 
DISL,ioos:station:DISL:BSCA:1,2015-03-06T04:00:00Z,30.3288,-87.8293,87.3,1111122 
DISL,ioos:station:DISL:BSCA:1,2015-03-06T04:30:00Z,30.3288,-87.8293,84.4,1111122 
DISL,ioos:station:DISL:BSCA:1,2015-03-06T05:00:00Z,30.3288,-87.8293,84.6,1111122 
DISL,ioos:station:DISL:BSCA:1,2015-03-06T05:30:00Z,30.3288,-87.8293,85.2,1111122 
DISL,ioos:station:DISL:BSCA:1,2015-03-06T06:00:00Z,30.3288,-87.8293,89.5,1111122 
DISL,ioos:station:DISL:BSCA:1,2015-03-06T06:30:00Z,30.3288,-87.8293,79.95,1111122 
DISL,ioos:station:DISL:BSCA:1,2015-03-06T07:00:00Z,30.3288,-87.8293,87.8,1111122 
DISL,ioos:station:DISL:BSCA:1,2015-03-06T07:30:00Z,30.3288,-87.8293,83.5,1111122 
DISL,ioos:station:DISL:BSCA:1,2015-03-06T08:00:00Z,30.3288,-87.8293,85.3,1111122 
DISL,ioos:station:DISL:BSCA:1,2015-03-06T08:30:00Z,30.3288,-87.8293,88.6,1111122 
DISL,ioos:station:DISL:BSCA:1,2015-03-06T09:00:00Z,30.3288,-87.8293,84.5,1111122 
DISL,ioos:station:DISL:BSCA:1,2015-03-06T09:30:00Z,30.3288,-87.8293,91.7,1111122 
DISL,ioos:station:DISL:BSCA:1,2015-03-06T10:00:00Z,30.3288,-87.8293,86.4,1111122 
DISL,ioos:station:DISL:BSCA:1,2015-03-06T10:30:00Z,30.3288,-87.8293,79.09,1111122 
DISL,ioos:station:DISL:BSCA:1,2015-03-06T11:00:00Z,30.3288,-87.8293,81.1,1111122 
DISL,ioos:station:DISL:BSCA:1,2015-03-06T11:30:00Z,30.3288,-87.8293,85.2,1111122 
DISL,ioos:station:DISL:BSCA:1,2015-03-06T12:00:00Z,30.3288,-87.8293,80.2,1111122 
DISL,ioos:station:DISL:BSCA:1,2015-03-06T12:30:00Z,30.3288,-87.8293,81.6,1111122 
DISL,ioos:station:DISL:BSCA:1,2015-03-06T13:00:00Z,30.3288,-87.8293,83.8,1111122 
DISL,ioos:station:DISL:BSCA:1,2015-03-06T13:30:00Z,30.3288,-87.8293,83.6,1111122 
DISL,ioos:station:DISL:BSCA:1,2015-03-06T14:00:00Z,30.3288,-87.8293,77.77,1111122 
DISL,ioos:station:DISL:BSCA:1,2015-03-06T14:30:00Z,30.3288,-87.8293,74.44,1111122 
DISL,ioos:station:DISL:BSCA:1,2015-03-06T15:00:00Z,30.3288,-87.8293,68.42,1111122 
DISL,ioos:station:DISL:BSCA:1,2015-03-06T15:30:00Z,30.3288,-87.8293,70.82,1111122 
DISL,ioos:station:DISL:BSCA:1,2015-03-06T16:00:00Z,30.3288,-87.8293,57.96,1111122 
DISL,ioos:station:DISL:BSCA:1,2015-03-06T16:30:00Z,30.3288,-87.8293,62.81,1111122 
DISL,ioos:station:DISL:BSCA:1,2015-03-06T17:00:00Z,30.3288,-87.8293,53.06,1111122 
DISL,ioos:station:DISL:BSCA:1,2015-03-06T17:30:00Z,30.3288,-87.8293,44.71,1111122 
DISL,ioos:station:DISL:BSCA:1,2015-03-06T18:00:00Z,30.3288,-87.8293,45.49,1111122 
DISL,ioos:station:DISL:BSCA:1,2015-03-06T18:30:00Z,30.3288,-87.8293,47.1,1111122 
DISL,ioos:station:DISL:BSCA:1,2015-03-06T19:00:00Z,30.3288,-87.8293,31.67,1111122 
DISL,ioos:station:DISL:BSCA:1,2015-03-06T19:30:00Z,30.3288,-87.8293,38.15,1111122 
DISL,ioos:station:DISL:BSCA:1,2015-03-06T20:00:00Z,30.3288,-87.8293,39.34,1111122 
DISL,ioos:station:DISL:BSCA:1,2015-03-06T20:30:00Z,30.3288,-87.8293,27.7,1111122 
DISL,ioos:station:DISL:BSCA:1,2015-03-06T21:00:00Z,30.3288,-87.8293,24.95,1111122 
DISL,ioos:station:DISL:BSCA:1,2015-03-06T21:30:00Z,30.3288,-87.8293,29.36,1111122 
DISL,ioos:station:DISL:BSCA:1,2015-03-06T22:00:00Z,30.3288,-87.8293,24.37,1111122 
DISL,ioos:station:DISL:BSCA:1,2015-03-06T22:30:00Z,30.3288,-87.8293,32.81,1111122 
DISL,ioos:station:DISL:BSCA:1,2015-03-06T23:00:00Z,30.3288,-87.8293,27.86,1111122 
DISL,ioos:station:DISL:BSCA:1,2015-03-06T23:30:00Z,30.3288,-87.8293,26.61,1111122 
DISL,ioos:station:DISL:BSCA:1,2015-03-07T00:00:00Z,30.3288,-87.8293,32.61,1111122 
DISL,ioos:station:DISL:BSCA:1,2015-03-07T00:30:00Z,30.3288,-87.8293,35.47,1111122 
DISL,ioos:station:DISL:BSCA:1,2015-03-07T01:00:00Z,30.3288,-87.8293,48.15,1111122 
DISL,ioos:station:DISL:BSCA:1,2015-03-07T01:30:00Z,30.3288,-87.8293,45.07,1111122 
DISL,ioos:station:DISL:BSCA:1,2015-03-07T02:00:00Z,30.3288,-87.8293,44.39,1111122 
DISL,ioos:station:DISL:BSCA:1,2015-03-07T02:30:00Z,30.3288,-87.8293,50.46,1111122 
DISL,ioos:station:DISL:BSCA:1,2015-03-07T03:00:00Z,30.3288,-87.8293,47.27,1111122 
DISL,ioos:station:DISL:BSCA:1,2015-03-07T03:30:00Z,30.3288,-87.8293,54.5,1111122 
DISL,ioos:station:DISL:BSCA:1,2015-03-07T04:00:00Z,30.3288,-87.8293,47.56,1111122 
DISL,ioos:station:DISL:BSCA:1,2015-03-07T04:30:00Z,30.3288,-87.8293,45.59,1111122 
DISL,ioos:station:DISL:BSCA:1,2015-03-07T05:00:00Z,30.3288,-87.8293,45.83,1111122 
DISL,ioos:station:DISL:BSCA:1,2015-03-07T05:30:00Z,30.3288,-87.8293,44.78,1111122 
DISL,ioos:station:DISL:BSCA:1,2015-03-07T06:00:00Z,30.3288,-87.8293,45.62,1111122 
DISL,ioos:station:DISL:BSCA:1,2015-03-07T06:30:00Z,30.3288,-87.8293,45.42,1111122 
DISL,ioos:station:DISL:BSCA:1,2015-03-07T07:00:00Z,30.3288,-87.8293,48.85,1111122 
DISL,ioos:station:DISL:BSCA:1,2015-03-07T07:30:00Z,30.3288,-87.8293,49.19,1111122 
DISL,ioos:station:DISL:BSCA:1,2015-03-07T08:00:00Z,30.3288,-87.8293,56.82,1111122 
DISL,ioos:station:DISL:BSCA:1,2015-03-07T08:30:00Z,30.3288,-87.8293,54.95,1111122 
DISL,ioos:station:DISL:BSCA:1,2015-03-07T09:00:00Z,30.3288,-87.8293,54.17,1111122 
DISL,ioos:station:DISL:BSCA:1,2015-03-07T09:30:00Z,30.3288,-87.8293,55.64,1111122 
DISL,ioos:station:DISL:BSCA:1,2015-03-07T10:00:00Z,30.3288,-87.8293,56.01,1111122 
DISL,ioos:station:DISL:BSCA:1,2015-03-07T10:30:00Z,30.3288,-87.8293,59.55,1111122 
DISL,ioos:station:DISL:BSCA:1,2015-03-07T11:00:00Z,30.3288,-87.8293,62.33,1111122 
DISL,ioos:station:DISL:BSCA:1,2015-03-07T11:30:00Z,30.3288,-87.8293,70.24,1111122 
DISL,ioos:station:DISL:BSCA:1,2015-03-07T12:00:00Z,30.3288,-87.8293,67.42,1111122 
DISL,ioos:station:DISL:BSCA:1,2015-03-07T12:30:00Z,30.3288,-87.8293,67.56,1111122 
DISL,ioos:station:DISL:BSCA:1,2015-03-07T13:00:00Z,30.3288,-87.8293,65.22,1111122 
DISL,ioos:station:DISL:BSCA:1,2015-03-07T13:30:00Z,30.3288,-87.8293,67.36,1111122 
DISL,ioos:station:DISL:BSCA:1,2015-03-07T14:00:00Z,30.3288,-87.8293,58.49,1111122 
DISL,ioos:station:DISL:BSCA:1,2015-03-07T14:30:00Z,30.3288,-87.8293,57.02,1111122 
DISL,ioos:station:DISL:BSCA:1,2015-03-07T15:00:00Z,30.3288,-87.8293,57.19,1111122 
DISL,ioos:station:DISL:BSCA:1,2015-03-07T15:30:00Z,30.3288,-87.8293,54.02,1111122 
DISL,ioos:station:DISL:BSCA:1,2015-03-07T16:00:00Z,30.3288,-87.8293,50.86,1111122 
DISL,ioos:station:DISL:BSCA:1,2015-03-07T16:30:00Z,30.3288,-87.8293,51.1,1111122 
DISL,ioos:station:DISL:BSCA:1,2015-03-07T17:00:00Z,30.3288,-87.8293,50.34,1111122 
DISL,ioos:station:DISL:BSCA:1,2015-03-07T17:30:00Z,30.3288,-87.8293,55.29,1111122 
DISL,ioos:station:DISL:BSCA:1,2015-03-07T18:00:00Z,30.3288,-87.8293,72.2,1111122 
DISL,ioos:station:DISL:BSCA:1,2015-03-07T18:30:00Z,30.3288,-87.8293,65.39,1111122 
DISL,ioos:station:DISL:BSCA:1,2015-03-07T19:00:00Z,30.3288,-87.8293,66.2,1111122 
DISL,ioos:station:DISL:BSCA:1,2015-03-07T19:30:00Z,30.3288,-87.8293,64.92,1111122 
DISL,ioos:station:DISL:BSCA:1,2015-03-07T20:00:00Z,30.3288,-87.8293,61.8,1111122 
DISL,ioos:station:DISL:BSCA:1,2015-03-07T20:30:00Z,30.3288,-87.8293,59.59,1111122 
DISL,ioos:station:DISL:BSCA:1,2015-03-07T21:00:00Z,30.3288,-87.8293,60.64,1111122 
DISL,ioos:station:DISL:BSCA:1,2015-03-07T21:30:00Z,30.3288,-87.8293,61.52,1111122 
DISL,ioos:station:DISL:BSCA:1,2015-03-07T22:00:00Z,30.3288,-87.8293,65.28,1111122 
DISL,ioos:station:DISL:BSCA:1,2015-03-07T22:30:00Z,30.3288,-87.8293,70.76,1111122 
DISL,ioos:station:DISL:BSCA:1,2015-03-07T23:00:00Z,30.3288,-87.8293,72.29,1111122 
DISL,ioos:station:DISL:BSCA:1,2015-03-07T23:30:00Z,30.3288,-87.8293,78.87,1111122 
DISL,ioos:station:DISL:BSCA:1,2015-03-08T00:00:00Z,30.3288,-87.8293,77.35,1111122 
DISL,ioos:station:DISL:BSCA:1,2015-03-08T00:30:00Z,30.3288,-87.8293,81.3,1111122 
DISL,ioos:station:DISL:BSCA:1,2015-03-08T01:00:00Z,30.3288,-87.8293,82.5,1111122 
DISL,ioos:station:DISL:BSCA:1,2015-03-08T01:30:00Z,30.3288,-87.8293,83.6,1111122 
DISL,ioos:station:DISL:BSCA:1,2015-03-08T02:00:00Z,30.3288,-87.8293,86.9,1111122 
DISL,ioos:station:DISL:BSCA:1,2015-03-08T02:30:00Z,30.3288,-87.8293,88.7,1111122 
DISL,ioos:station:DISL:BSCA:1,2015-03-08T03:00:00Z,30.3288,-87.8293,85.2,1111122 
DISL,ioos:station:DISL:BSCA:1,2015-03-08T03:30:00Z,30.3288,-87.8293,87.9,1111122 
DISL,ioos:station:DISL:BSCA:1,2015-03-08T04:00:00Z,30.3288,-87.8293,92.1,1111122 
DISL,ioos:station:DISL:BSCA:1,2015-03-08T04:30:00Z,30.3288,-87.8293,92.7,1111122 
DISL,ioos:station:DISL:BSCA:1,2015-03-08T05:00:00Z,30.3288,-87.8293,92.9,1111122 
DISL,ioos:station:DISL:BSCA:1,2015-03-08T05:30:00Z,30.3288,-87.8293,95.1,1111122 
DISL,ioos:station:DISL:BSCA:1,2015-03-08T06:00:00Z,30.3288,-87.8293,89.1,1111122 
DISL,ioos:station:DISL:BSCA:1,2015-03-08T06:30:00Z,30.3288,-87.8293,88.5,1111122 
DISL,ioos:station:DISL:BSCA:1,2015-03-08T07:00:00Z,30.3288,-87.8293,90.6,1111122 
DISL,ioos:station:DISL:BSCA:1,2015-03-08T07:30:00Z,30.3288,-87.8293,92.1,1111122 
DISL,ioos:station:DISL:BSCA:1,2015-03-08T08:00:00Z,30.3288,-87.8293,80.2,1111122 
DISL,ioos:station:DISL:BSCA:1,2015-03-08T08:30:00Z,30.3288,-87.8293,74.2,1111122 
DISL,ioos:station:DISL:BSCA:1,2015-03-08T09:00:00Z,30.3288,-87.8293,74.3,1111122 
DISL,ioos:station:DISL:BSCA:1,2015-03-08T09:30:00Z,30.3288,-87.8293,72.4,1111122 
DISL,ioos:station:DISL:BSCA:1,2015-03-08T10:00:00Z,30.3288,-87.8293,67.07,1111122 
DISL,ioos:station:DISL:BSCA:1,2015-03-08T10:30:00Z,30.3288,-87.8293,62.46,1111122 
DISL,ioos:station:DISL:BSCA:1,2015-03-08T11:00:00Z,30.3288,-87.8293,66.97,1111122 
DISL,ioos:station:DISL:BSCA:1,2015-03-08T11:30:00Z,30.3288,-87.8293,63.75,1111122 
DISL,ioos:station:DISL:BSCA:1,2015-03-08T12:00:00Z,30.3288,-87.8293,66.36,1111122 
DISL,ioos:station:DISL:BSCA:1,2015-03-08T12:30:00Z,30.3288,-87.8293,65.58,1111122 
DISL,ioos:station:DISL:BSCA:1,2015-03-08T13:00:00Z,30.3288,-87.8293,64.6,1111122 
DISL,ioos:station:DISL:BSCA:1,2015-03-08T13:30:00Z,30.3288,-87.8293,64.9,1111122 
DISL,ioos:station:DISL:BSCA:1,2015-03-08T14:00:00Z,30.3288,-87.8293,71.07,1111122 
DISL,ioos:station:DISL:BSCA:1,2015-03-08T14:30:00Z,30.3288,-87.8293,67.34,1111122 
DISL,ioos:station:DISL:BSCA:1,2015-03-08T15:00:00Z,30.3288,-87.8293,63.19,1111122 
DISL,ioos:station:DISL:BSCA:1,2015-03-08T15:30:00Z,30.3288,-87.8293,74.54,1111122 
DISL,ioos:station:DISL:BSCA:1,2015-03-08T16:00:00Z,30.3288,-87.8293,67.37,1111122 
DISL,ioos:station:DISL:BSCA:1,2015-03-08T16:30:00Z,30.3288,-87.8293,67.43,1111122 
DISL,ioos:station:DISL:BSCA:1,2015-03-08T17:00:00Z,30.3288,-87.8293,59.54,1111122 
DISL,ioos:station:DISL:BSCA:1,2015-03-08T17:30:00Z,30.3288,-87.8293,61.3,1111122 
DISL,ioos:station:DISL:BSCA:1,2015-03-08T18:00:00Z,30.3288,-87.8293,60.86,1111122 
DISL,ioos:station:DISL:BSCA:1,2015-03-08T18:30:00Z,30.3288,-87.8293,59.64,1111122 
DISL,ioos:station:DISL:BSCA:1,2015-03-08T19:00:00Z,30.3288,-87.8293,63.64,1111122 
DISL,ioos:station:DISL:BSCA:1,2015-03-08T19:30:00Z,30.3288,-87.8293,64.22,1111122 
DISL,ioos:station:DISL:BSCA:1,2015-03-08T20:00:00Z,30.3288,-87.8293,73.23,1111122 
DISL,ioos:station:DISL:BSCA:1,2015-03-08T20:30:00Z,30.3288,-87.8293,76.58,1111122 
DISL,ioos:station:DISL:BSCA:1,2015-03-08T21:00:00Z,30.3288,-87.8293,84.7,1111122 
DISL,ioos:station:DISL:BSCA:1,2015-03-08T21:30:00Z,30.3288,-87.8293,81.8,1111122 
DISL,ioos:station:DISL:BSCA:1,2015-03-08T22:00:00Z,30.3288,-87.8293,82.3,1111122 
DISL,ioos:station:DISL:BSCA:1,2015-03-08T22:30:00Z,30.3288,-87.8293,87.5,1111122 
DISL,ioos:station:DISL:BSCA:1,2015-03-08T23:00:00Z,30.3288,-87.8293,90.2,1111122 
DISL,ioos:station:DISL:BSCA:1,2015-03-08T23:30:00Z,30.3288,-87.8293,90.6,1111122 
DISL,ioos:station:DISL:BSCA:1,2015-03-09T00:00:00Z,30.3288,-87.8293,89.7,1111122 
DISL,ioos:station:DISL:BSCA:1,2015-03-09T00:30:00Z,30.3288,-87.8293,88.6,1111122 
DISL,ioos:station:DISL:BSCA:1,2015-03-09T01:00:00Z,30.3288,-87.8293,88.9,1111122 
DISL,ioos:station:DISL:BSCA:1,2015-03-09T01:30:00Z,30.3288,-87.8293,90.4,1111122 
DISL,ioos:station:DISL:BSCA:1,2015-03-09T02:00:00Z,30.3288,-87.8293,91.3,1111122 
DISL,ioos:station:DISL:BSCA:1,2015-03-09T02:30:00Z,30.3288,-87.8293,90.7,1111122 
DISL,ioos:station:DISL:BSCA:1,2015-03-09T03:00:00Z,30.3288,-87.8293,92.8,1111122 
DISL,ioos:station:DISL:BSCA:1,2015-03-09T03:30:00Z,30.3288,-87.8293,90.5,1111122 
DISL,ioos:station:DISL:BSCA:1,2015-03-09T04:00:00Z,30.3288,-87.8293,92.2,1111122 
DISL,ioos:station:DISL:BSCA:1,2015-03-09T04:30:00Z,30.3288,-87.8293,92.1,1111122 
DISL,ioos:station:DISL:BSCA:1,2015-03-09T05:00:00Z,30.3288,-87.8293,93.5,1111122 
DISL,ioos:station:DISL:BSCA:1,2015-03-09T05:30:00Z,30.3288,-87.8293,94.3,1111122 
DISL,ioos:station:DISL:BSCA:1,2015-03-09T06:00:00Z,30.3288,-87.8293,95.1,1111122 
DISL,ioos:station:DISL:BSCA:1,2015-03-09T06:30:00Z,30.3288,-87.8293,94.4,1111122 
DISL,ioos:station:DISL:BSCA:1,2015-03-09T07:00:00Z,30.3288,-87.8293,94.8,1111122 
DISL,ioos:station:DISL:BSCA:1,2015-03-09T07:30:00Z,30.3288,-87.8293,94.6,1111122 
DISL,ioos:station:DISL:BSCA:1,2015-03-09T08:00:00Z,30.3288,-87.8293,94.3,1111122 
DISL,ioos:station:DISL:BSCA:1,2015-03-09T08:30:00Z,30.3288,-87.8293,94.9,1111122 
DISL,ioos:station:DISL:BSCA:1,2015-03-09T09:00:00Z,30.3288,-87.8293,95.9,1111122 
DISL,ioos:station:DISL:BSCA:1,2015-03-09T09:30:00Z,30.3288,-87.8293,98.0,1111122 
DISL,ioos:station:DISL:BSCA:1,2015-03-09T10:00:00Z,30.3288,-87.8293,97.9,1111122 
DISL,ioos:station:DISL:BSCA:1,2015-03-09T10:30:00Z,30.3288,-87.8293,97.9,1111122 
DISL,ioos:station:DISL:BSCA:1,2015-03-09T11:00:00Z,30.3288,-87.8293,97.3,1111122 
DISL,ioos:station:DISL:BSCA:1,2015-03-09T11:30:00Z,30.3288,-87.8293,96.5,1111122 
DISL,ioos:station:DISL:BSCA:1,2015-03-09T12:00:00Z,30.3288,-87.8293,96.1,1111122 
DISL,ioos:station:DISL:BSCA:1,2015-03-09T12:30:00Z,30.3288,-87.8293,96.2,1111122 
DISL,ioos:station:DISL:BSCA:1,2015-03-09T13:00:00Z,30.3288,-87.8293,95.1,1111122 
DISL,ioos:station:DISL:BSCA:1,2015-03-09T13:30:00Z,30.3288,-87.8293,93.6,1111122 
DISL,ioos:station:DISL:BSCA:1,2015-03-09T14:00:00Z,30.3288,-87.8293,92.6,1111122 
DISL,ioos:station:DISL:BSCA:1,2015-03-09T14:30:00Z,30.3288,-87.8293,87.9,1111122 
DISL,ioos:station:DISL:BSCA:1,2015-03-09T15:00:00Z,30.3288,-87.8293,84.0,1111122 
DISL,ioos:station:DISL:BSCA:1,2015-03-09T15:30:00Z,30.3288,-87.8293,81.2,1111122 
DISL,ioos:station:DISL:BSCA:1,2015-03-09T16:00:00Z,30.3288,-87.8293,79.94,1111122 
DISL,ioos:station:DISL:BSCA:1,2015-03-09T16:30:00Z,30.3288,-87.8293,80.8,1111122 
DISL,ioos:station:DISL:BSCA:1,2015-03-09T17:00:00Z,30.3288,-87.8293,79.97,1111122 
DISL,ioos:station:DISL:BSCA:1,2015-03-09T17:30:00Z,30.3288,-87.8293,79.76,1111122 
DISL,ioos:station:DISL:BSCA:1,2015-03-09T18:00:00Z,30.3288,-87.8293,82.1,1111122 
DISL,ioos:station:DISL:BSCA:1,2015-03-09T18:30:00Z,30.3288,-87.8293,83.6,1111122 
DISL,ioos:station:DISL:BSCA:1,2015-03-09T19:00:00Z,30.3288,-87.8293,88.0,1111122 
DISL,ioos:station:DISL:BSCA:1,2015-03-09T19:30:00Z,30.3288,-87.8293,88.1,1111122 
DISL,ioos:station:DISL:BSCA:1,2015-03-09T20:00:00Z,30.3288,-87.8293,91.3,1111122 
DISL,ioos:station:DISL:BSCA:1,2015-03-09T20:30:00Z,30.3288,-87.8293,93.6,1111122 
DISL,ioos:station:DISL:BSCA:1,2015-03-09T21:00:00Z,30.3288,-87.8293,95.7,1111122 
DISL,ioos:station:DISL:BSCA:1,2015-03-09T21:30:00Z,30.3288,-87.8293,95.1,1111122 
DISL,ioos:station:DISL:BSCA:1,2015-03-09T22:00:00Z,30.3288,-87.8293,95.6,1111122 
DISL,ioos:station:DISL:BSCA:1,2015-03-09T22:30:00Z,30.3288,-87.8293,95.9,1111122 
DISL,ioos:station:DISL:BSCA:1,2015-03-09T23:00:00Z,30.3288,-87.8293,97.3,1111122 
DISL,ioos:station:DISL:BSCA:1,2015-03-09T23:30:00Z,30.3288,-87.8293,97.8,1111122 
DISL,ioos:station:DISL:BSCA:1,2015-03-10T00:00:00Z,30.3288,-87.8293,97.8,1111122 
DISL,ioos:station:DISL:BSCA:1,2015-03-10T00:30:00Z,30.3288,-87.8293,98.2,1111122 
DISL,ioos:station:DISL:BSCA:1,2015-03-10T01:00:00Z,30.3288,-87.8293,98.7,1111122 